Time,TemperatureF,DewpointF,PressureIn,WindDirection,WindDirectionDegrees,WindSpeedMPH,WindSpeedGustMPH,Humidity,HourlyPrecipIn,Conditions,Clouds,dailyrainin,SoftwareType,DateUTC
2013-03-04 00:00:00,38.5,25.4,29.38,ESE,113,0.9,2.9,59,0.00,,,0.00,WUHU216HW,2013-03-04 06:00:00,
2013-03-04 00:05:00,38.5,25.4,29.38,ESE,113,1.1,1.8,59,0.00,,,0.00,WUHU216HW,2013-03-04 06:05:00,
2013-03-04 00:10:00,38.5,25.4,29.38,ESE,113,2.9,3.8,59,0.00,,,0.00,WUHU216HW,2013-03-04 06:10:00,
2013-03-04 00:15:00,38.5,25.4,29.38,ESE,113,1.1,3.8,59,0.00,,,0.00,WUHU216HW,2013-03-04 06:15:00,
2013-03-04 00:20:00,38.5,25.4,29.38,SE,135,1.3,2.7,59,0.00,,,0.00,WUHU216HW,2013-03-04 06:20:00,
2013-03-04 00:25:00,38.5,25.4,29.38,ESE,113,1.1,2.2,59,0.00,,,0.00,WUHU216HW,2013-03-04 06:25:00,
2013-03-04 00:30:00,38.5,25.8,29.38,East,90,0.4,2.2,60,0.00,,,0.00,WUHU216HW,2013-03-04 06:30:00,
2013-03-04 00:35:00,38.5,25.8,29.38,ENE,68,1.6,3.1,60,0.00,,,0.00,WUHU216HW,2013-03-04 06:35:00,
2013-03-04 00:40:00,38.5,25.8,29.38,SE,135,1.6,3.1,60,0.00,,,0.00,WUHU216HW,2013-03-04 06:40:00,
2013-03-04 00:45:00,38.5,25.8,29.38,North,0,0.4,2.2,60,0.00,,,0.00,WUHU216HW,2013-03-04 06:45:00,
2013-03-04 00:50:00,38.5,25.8,29.38,SE,135,2.0,2.0,60,0.00,,,0.00,WUHU216HW,2013-03-04 06:50:00,
2013-03-04 00:55:00,38.5,25.8,29.37,ESE,113,1.8,2.0,60,0.00,,,0.00,WUHU216HW,2013-03-04 06:55:00,
2013-03-04 01:00:00,38.5,25.8,29.38,ESE,113,2.2,2.2,60,0.00,,,0.00,WUHU216HW,2013-03-04 07:00:00,
2013-03-04 01:05:00,38.5,25.8,29.37,ESE,113,2.5,2.5,60,0.00,,,0.00,WUHU216HW,2013-03-04 07:05:00,
2013-03-04 01:10:00,38.7,26.4,29.37,SE,135,3.4,3.4,61,0.00,,,0.00,WUHU216HW,2013-03-04 07:10:00,
2013-03-04 01:15:00,38.7,26.4,29.37,ESE,113,0.4,3.4,61,0.00,,,0.00,WUHU216HW,2013-03-04 07:15:00,
2013-03-04 01:20:00,38.7,26.4,29.37,ENE,68,2.0,2.0,61,0.00,,,0.00,WUHU216HW,2013-03-04 07:20:00,
2013-03-04 01:25:00,38.5,26.6,29.37,SE,135,1.8,5.6,62,0.00,,,0.00,WUHU216HW,2013-03-04 07:25:00,
2013-03-04 01:30:00,38.5,26.6,29.36,NNW,338,2.2,5.6,62,0.00,,,0.00,WUHU216HW,2013-03-04 07:30:00,
2013-03-04 01:35:00,38.2,26.7,29.36,ESE,113,0.9,4.5,63,0.00,,,0.00,WUHU216HW,2013-03-04 07:35:00,
2013-03-04 01:40:00,38.2,26.7,29.36,ESE,113,3.4,4.5,63,0.00,,,0.00,WUHU216HW,2013-03-04 07:40:00,
2013-03-04 01:45:00,38.0,26.8,29.36,SSE,158,1.1,3.4,64,0.00,,,0.00,WUHU216HW,2013-03-04 07:45:00,
2013-03-04 01:50:00,38.0,26.8,29.36,ESE,113,2.5,2.5,64,0.00,,,0.00,WUHU216HW,2013-03-04 07:50:00,
2013-03-04 01:55:00,37.8,27.1,29.36,East,90,1.1,3.6,65,0.00,,,0.00,WUHU216HW,2013-03-04 07:55:00,
2013-03-04 02:00:00,37.8,27.5,29.35,ESE,113,1.8,3.6,66,0.00,,,0.00,WUHU216HW,2013-03-04 08:00:00,
2013-03-04 02:05:00,37.8,27.5,29.35,SE,135,3.1,3.1,66,0.00,,,0.00,WUHU216HW,2013-03-04 08:05:00,
2013-03-04 02:10:00,37.8,27.5,29.35,ESE,113,0.9,3.1,66,0.00,,,0.00,WUHU216HW,2013-03-04 08:10:00,
2013-03-04 02:15:00,37.8,27.5,29.34,ESE,113,1.1,1.8,66,0.00,,,0.00,WUHU216HW,2013-03-04 08:15:00,
2013-03-04 02:20:00,37.6,27.6,29.35,ENE,68,2.2,3.8,67,0.00,,,0.00,WUHU216HW,2013-03-04 08:20:00,
2013-03-04 02:25:00,37.4,27.5,29.35,East,90,2.5,5.6,67,0.00,,,0.00,WUHU216HW,2013-03-04 08:25:00,
2013-03-04 02:30:00,37.3,27.3,29.34,ENE,68,2.7,5.6,67,0.00,,,0.00,WUHU216HW,2013-03-04 08:30:00,
2013-03-04 02:35:00,37.3,27.7,29.34,East,90,5.4,5.4,68,0.00,,,0.00,WUHU216HW,2013-03-04 08:35:00,
2013-03-04 02:40:00,37.1,27.6,29.34,ENE,68,1.8,5.4,68,0.00,,,0.00,WUHU216HW,2013-03-04 08:40:00,
2013-03-04 02:45:00,37.1,27.9,29.34,ESE,113,1.6,4.7,69,0.00,,,0.00,WUHU216HW,2013-03-04 08:45:00,
2013-03-04 02:50:00,37.1,27.9,29.34,ESE,113,2.9,4.0,69,0.00,,,0.00,WUHU216HW,2013-03-04 08:50:00,
2013-03-04 02:55:00,37.1,27.9,29.33,East,90,0.7,7.2,69,0.00,,,0.00,WUHU216HW,2013-03-04 08:55:00,
2013-03-04 03:00:00,37.1,27.9,29.33,East,90,3.4,7.2,69,0.00,,,0.00,WUHU216HW,2013-03-04 09:00:00,
2013-03-04 03:05:00,37.1,27.9,29.32,WNW,293,1.6,4.3,69,0.00,,,0.00,WUHU216HW,2013-03-04 09:05:00,
2013-03-04 03:10:00,37.1,27.9,29.32,ESE,113,2.7,4.9,69,0.00,,,0.00,WUHU216HW,2013-03-04 09:10:00,
2013-03-04 03:15:00,37.1,27.9,29.32,ESE,113,1.1,5.4,69,0.00,,,0.00,WUHU216HW,2013-03-04 09:15:00,
2013-03-04 03:20:00,37.1,27.9,29.32,SE,135,1.1,5.4,69,0.00,,,0.00,WUHU216HW,2013-03-04 09:20:00,
2013-03-04 03:25:00,37.1,27.9,29.32,ESE,113,2.0,4.7,69,0.00,,,0.00,WUHU216HW,2013-03-04 09:25:00,
2013-03-04 03:30:00,37.1,27.9,29.31,ENE,68,6.0,6.0,69,0.00,,,0.00,WUHU216HW,2013-03-04 09:30:00,
2013-03-04 03:35:00,37.1,27.6,29.31,SE,135,3.4,6.0,68,0.00,,,0.00,WUHU216HW,2013-03-04 09:35:00,
2013-03-04 03:40:00,37.1,27.6,29.31,East,90,2.0,5.4,68,0.00,,,0.00,WUHU216HW,2013-03-04 09:40:00,
2013-03-04 03:45:00,37.1,27.6,29.30,NE,45,4.5,4.9,68,0.00,,,0.00,WUHU216HW,2013-03-04 09:45:00,
2013-03-04 03:50:00,36.9,27.4,29.30,East,90,3.6,4.9,68,0.00,,,0.00,WUHU216HW,2013-03-04 09:50:00,
2013-03-04 03:55:00,36.9,27.4,29.30,ESE,113,3.8,6.9,68,0.00,,,0.00,WUHU216HW,2013-03-04 09:55:00,
2013-03-04 04:00:00,36.9,27.4,29.30,ENE,68,3.6,6.9,68,0.00,,,0.00,WUHU216HW,2013-03-04 10:00:00,
2013-03-04 04:05:00,36.9,27.4,29.30,ESE,113,2.5,4.9,68,0.00,,,0.00,WUHU216HW,2013-03-04 10:05:00,
2013-03-04 04:10:00,36.9,27.4,29.30,ENE,68,3.4,5.6,68,0.00,,,0.00,WUHU216HW,2013-03-04 10:10:00,
2013-03-04 04:15:00,36.9,27.4,29.31,ESE,113,5.1,5.6,68,0.00,,,0.00,WUHU216HW,2013-03-04 10:15:00,
2013-03-04 04:20:00,36.9,27.4,29.31,ESE,113,3.6,5.1,68,0.00,,,0.00,WUHU216HW,2013-03-04 10:20:00,
2013-03-04 04:25:00,36.7,27.2,29.30,ESE,113,5.6,5.6,68,0.00,,,0.00,WUHU216HW,2013-03-04 10:25:00,
2013-03-04 04:30:00,36.7,27.2,29.30,ENE,68,4.9,5.6,68,0.00,,,0.00,WUHU216HW,2013-03-04 10:30:00,
2013-03-04 04:35:00,36.7,26.8,29.30,East,90,5.6,6.5,67,0.00,,,0.00,WUHU216HW,2013-03-04 10:35:00,
2013-03-04 04:40:00,36.7,26.8,29.30,SE,135,2.5,6.5,67,0.00,,,0.00,WUHU216HW,2013-03-04 10:40:00,
2013-03-04 04:45:00,36.7,26.8,29.30,North,0,2.7,6.9,67,0.00,,,0.00,WUHU216HW,2013-03-04 10:45:00,
2013-03-04 04:50:00,36.5,26.7,29.30,East,90,2.0,7.4,67,0.00,,,0.00,WUHU216HW,2013-03-04 10:50:00,
2013-03-04 04:55:00,36.5,26.7,29.30,ESE,113,2.5,7.4,67,0.00,,,0.00,WUHU216HW,2013-03-04 10:55:00,
2013-03-04 05:00:00,36.5,26.7,29.30,East,90,4.7,6.3,67,0.00,,,0.00,WUHU216HW,2013-03-04 11:00:00,
2013-03-04 05:05:00,36.5,26.7,29.30,ESE,113,2.5,5.4,67,0.00,,,0.00,WUHU216HW,2013-03-04 11:05:00,
2013-03-04 05:10:00,36.5,26.7,29.30,SE,135,1.8,5.4,67,0.00,,,0.00,WUHU216HW,2013-03-04 11:10:00,
2013-03-04 05:15:00,36.5,26.7,29.30,East,90,4.7,4.7,67,0.00,,,0.00,WUHU216HW,2013-03-04 11:15:00,
2013-03-04 05:20:00,36.5,26.3,29.29,ESE,113,4.7,4.7,66,0.00,,,0.00,WUHU216HW,2013-03-04 11:20:00,
2013-03-04 05:25:00,36.5,26.3,29.29,East,90,3.4,4.7,66,0.00,,,0.00,WUHU216HW,2013-03-04 11:25:00,
2013-03-04 05:30:00,36.4,26.1,29.29,SE,135,5.4,5.4,66,0.00,,,0.00,WUHU216HW,2013-03-04 11:30:00,
2013-03-04 05:35:00,36.4,26.1,29.29,ENE,68,3.8,5.4,66,0.00,,,0.00,WUHU216HW,2013-03-04 11:35:00,
2013-03-04 05:40:00,36.4,26.1,29.29,NNE,23,5.4,5.4,66,0.00,,,0.00,WUHU216HW,2013-03-04 11:40:00,
2013-03-04 05:45:00,36.5,26.3,29.29,ESE,113,1.1,5.4,66,0.00,,,0.00,WUHU216HW,2013-03-04 11:45:00,
2013-03-04 05:50:00,36.5,26.3,29.29,ESE,113,3.4,4.0,66,0.00,,,0.00,WUHU216HW,2013-03-04 11:50:00,
2013-03-04 05:55:00,36.5,26.3,29.28,SE,135,5.1,5.1,66,0.00,,,0.00,WUHU216HW,2013-03-04 11:55:00,
2013-03-04 06:00:00,36.5,26.3,29.29,WSW,248,3.4,5.1,66,0.00,,,0.00,WUHU216HW,2013-03-04 12:00:00,
2013-03-04 06:05:00,36.5,26.3,29.28,ENE,68,5.4,5.4,66,0.00,,,0.00,WUHU216HW,2013-03-04 12:05:00,
2013-03-04 06:10:00,36.5,26.3,29.28,ESE,113,6.0,6.0,66,0.00,,,0.00,WUHU216HW,2013-03-04 12:10:00,
2013-03-04 06:15:00,36.5,25.9,29.28,SE,135,6.3,6.3,65,0.00,,,0.00,WUHU216HW,2013-03-04 12:15:00,
2013-03-04 06:20:00,36.5,26.3,29.28,SE,135,4.5,6.3,66,0.00,,,0.00,WUHU216HW,2013-03-04 12:20:00,
2013-03-04 06:25:00,36.5,26.3,29.28,East,90,3.4,4.5,66,0.00,,,0.00,WUHU216HW,2013-03-04 12:25:00,
2013-03-04 06:30:00,36.7,26.5,29.28,NE,45,2.5,4.9,66,0.00,,,0.00,WUHU216HW,2013-03-04 12:30:00,
2013-03-04 06:35:00,36.7,26.0,29.28,East,90,0.9,4.9,65,0.00,,,0.00,WUHU216HW,2013-03-04 12:35:00,
2013-03-04 06:40:00,36.7,26.0,29.28,SE,135,3.1,6.9,65,0.00,,,0.00,WUHU216HW,2013-03-04 12:40:00,
2013-03-04 06:45:00,36.7,26.0,29.28,SSE,158,4.9,6.9,65,0.00,,,0.00,WUHU216HW,2013-03-04 12:45:00,
2013-03-04 06:50:00,36.7,26.0,29.28,East,90,4.5,6.7,65,0.00,,,0.00,WUHU216HW,2013-03-04 12:50:00,
2013-03-04 06:55:00,36.7,25.7,29.28,ESE,113,5.1,6.7,64,0.00,,,0.00,WUHU216HW,2013-03-04 12:55:00,
2013-03-04 07:00:00,36.7,25.7,29.28,ENE,68,2.5,5.8,64,0.00,,,0.00,WUHU216HW,2013-03-04 13:00:00,
2013-03-04 07:05:00,36.9,25.8,29.27,ESE,113,2.0,6.3,64,0.00,,,0.00,WUHU216HW,2013-03-04 13:05:00,
2013-03-04 07:10:00,37.1,26.4,29.26,ENE,68,2.5,6.3,65,0.00,,,0.00,WUHU216HW,2013-03-04 13:10:00,
2013-03-04 07:15:00,37.1,26.0,29.26,ESE,113,1.6,4.7,64,0.00,,,0.00,WUHU216HW,2013-03-04 13:15:00,
2013-03-04 07:20:00,37.1,26.0,29.26,East,90,3.4,6.5,64,0.00,,,0.00,WUHU216HW,2013-03-04 13:20:00,
2013-03-04 07:25:00,37.1,25.7,29.26,SSE,158,4.0,8.9,63,0.00,,,0.00,WUHU216HW,2013-03-04 13:25:00,
2013-03-04 07:30:00,37.1,26.0,29.26,ENE,68,4.9,8.9,64,0.00,,,0.00,WUHU216HW,2013-03-04 13:30:00,
2013-03-04 07:35:00,37.3,25.8,29.26,ESE,113,5.1,5.1,63,0.00,,,0.00,WUHU216HW,2013-03-04 13:35:00,
2013-03-04 07:40:00,37.3,25.8,29.25,East,90,5.6,6.0,63,0.00,,,0.00,WUHU216HW,2013-03-04 13:40:00,
2013-03-04 07:45:00,37.4,26.0,29.25,East,90,1.1,6.0,63,0.00,,,0.00,WUHU216HW,2013-03-04 13:45:00,
2013-03-04 07:50:00,37.4,26.0,29.25,ENE,68,1.8,5.8,63,0.00,,,0.00,WUHU216HW,2013-03-04 13:50:00,
2013-03-04 07:55:00,37.4,26.0,29.26,West,270,9.6,9.6,63,0.00,,,0.00,WUHU216HW,2013-03-04 13:55:00,
2013-03-04 08:00:00,37.6,26.1,29.26,SW,225,1.8,9.6,63,0.00,,,0.00,WUHU216HW,2013-03-04 14:00:00,
2013-03-04 08:05:00,37.8,26.3,29.26,NE,45,1.8,7.4,63,0.00,,,0.00,WUHU216HW,2013-03-04 14:05:00,
2013-03-04 08:10:00,38.0,26.5,29.26,ENE,68,3.1,7.2,63,0.00,,,0.00,WUHU216HW,2013-03-04 14:10:00,
2013-03-04 08:15:00,38.0,26.5,29.26,ENE,68,1.8,5.4,63,0.00,,,0.00,WUHU216HW,2013-03-04 14:15:00,
2013-03-04 08:20:00,38.2,26.7,29.26,SE,135,5.1,5.4,63,0.00,,,0.00,WUHU216HW,2013-03-04 14:20:00,
2013-03-04 08:25:00,38.3,26.8,29.26,ENE,68,2.9,5.1,63,0.00,,,0.00,WUHU216HW,2013-03-04 14:25:00,
2013-03-04 08:30:00,38.5,26.9,29.25,East,90,2.5,6.9,63,0.00,,,0.00,WUHU216HW,2013-03-04 14:30:00,
2013-03-04 08:35:00,38.7,26.7,29.25,East,90,8.5,8.5,62,0.00,,,0.00,WUHU216HW,2013-03-04 14:35:00,
2013-03-04 08:40:00,38.9,26.9,29.25,NNW,338,4.0,8.5,62,0.00,,,0.00,WUHU216HW,2013-03-04 14:40:00,
2013-03-04 08:45:00,38.9,26.6,29.24,NE,45,3.4,6.9,61,0.00,,,0.00,WUHU216HW,2013-03-04 14:45:00,
2013-03-04 08:50:00,39.1,26.6,29.23,SE,135,3.4,6.9,61,0.01,,,0.01,WUHU216HW,2013-03-04 14:50:00,
2013-03-04 08:55:00,39.2,26.5,29.23,SE,135,2.9,6.7,60,0.01,,,0.01,WUHU216HW,2013-03-04 14:55:00,
2013-03-04 09:00:00,39.2,26.8,29.23,SSE,158,8.5,8.5,61,0.01,,,0.01,WUHU216HW,2013-03-04 15:00:00,
2013-03-04 09:05:00,39.6,27.2,29.23,ESE,113,2.9,8.5,61,0.01,,,0.01,WUHU216HW,2013-03-04 15:05:00,
2013-03-04 09:10:00,40.0,27.2,29.23,ENE,68,3.4,7.4,60,0.01,,,0.01,WUHU216HW,2013-03-04 15:10:00,
2013-03-04 09:15:00,40.0,26.3,29.23,SSE,158,3.8,3.8,58,0.01,,,0.01,WUHU216HW,2013-03-04 15:15:00,
2013-03-04 09:20:00,40.1,26.9,29.23,ESE,113,3.4,8.3,59,0.01,,,0.01,WUHU216HW,2013-03-04 15:20:00,
2013-03-04 09:25:00,40.5,26.8,29.23,NE,45,2.0,8.3,58,0.01,,,0.01,WUHU216HW,2013-03-04 15:25:00,
2013-03-04 09:30:00,40.7,27.0,29.23,NNE,23,4.7,5.8,58,0.01,,,0.01,WUHU216HW,2013-03-04 15:30:00,
2013-03-04 09:35:00,40.9,27.2,29.23,ESE,113,1.8,5.8,58,0.01,,,0.01,WUHU216HW,2013-03-04 15:35:00,
2013-03-04 09:40:00,41.0,26.9,29.23,ESE,113,3.4,4.7,57,0.01,,,0.01,WUHU216HW,2013-03-04 15:40:00,
2013-03-04 09:45:00,41.2,27.6,29.23,East,90,5.4,5.4,58,0.00,,,0.01,WUHU216HW,2013-03-04 15:45:00,
2013-03-04 09:50:00,41.4,27.3,29.22,ENE,68,2.9,7.2,57,0.00,,,0.01,WUHU216HW,2013-03-04 15:50:00,
2013-03-04 09:55:00,41.4,27.3,29.22,SE,135,2.0,7.2,57,0.00,,,0.01,WUHU216HW,2013-03-04 15:55:00,
2013-03-04 10:00:00,41.4,25.9,29.22,SE,135,3.4,6.9,54,0.00,,,0.01,WUHU216HW,2013-03-04 16:00:00,
2013-03-04 10:05:00,41.6,27.0,29.22,SE,135,1.3,5.4,56,0.00,,,0.01,WUHU216HW,2013-03-04 16:05:00,
2013-03-04 10:10:00,41.9,26.9,29.22,NNE,23,3.4,4.5,55,0.00,,,0.01,WUHU216HW,2013-03-04 16:10:00,
2013-03-04 10:15:00,42.1,27.5,29.21,East,90,4.7,4.7,56,0.00,,,0.01,WUHU216HW,2013-03-04 16:15:00,
2013-03-04 10:20:00,42.3,27.2,29.21,ESE,113,6.0,6.0,55,0.00,,,0.01,WUHU216HW,2013-03-04 16:20:00,
2013-03-04 10:25:00,42.5,27.8,29.21,ENE,68,6.0,6.0,56,0.00,,,0.01,WUHU216HW,2013-03-04 16:25:00,
2013-03-04 10:30:00,42.7,27.5,29.21,SSE,158,3.6,6.3,55,0.00,,,0.01,WUHU216HW,2013-03-04 16:30:00,
2013-03-04 10:35:00,42.7,27.5,29.20,ENE,68,3.4,6.3,55,0.00,,,0.01,WUHU216HW,2013-03-04 16:35:00,
2013-03-04 10:40:00,42.8,26.8,29.20,NNW,338,4.7,6.0,53,0.00,,,0.01,WUHU216HW,2013-03-04 16:40:00,
2013-03-04 10:45:00,42.8,27.7,29.20,ESE,113,1.8,4.7,55,0.00,,,0.01,WUHU216HW,2013-03-04 16:45:00,
2013-03-04 10:50:00,43.2,28.1,29.20,East,90,2.5,6.3,55,0.00,,,0.01,WUHU216HW,2013-03-04 16:50:00,
2013-03-04 10:55:00,43.6,28.0,29.20,SE,135,2.0,7.4,54,0.00,,,0.01,WUHU216HW,2013-03-04 16:55:00,
2013-03-04 11:00:00,43.7,27.7,29.20,East,90,2.5,7.4,53,0.00,,,0.01,WUHU216HW,2013-03-04 17:00:00,
2013-03-04 11:05:00,44.1,28.0,29.19,East,90,2.5,4.0,53,0.00,,,0.01,WUHU216HW,2013-03-04 17:05:00,
2013-03-04 11:10:00,44.5,28.4,29.19,ESE,113,2.5,5.4,53,0.00,,,0.01,WUHU216HW,2013-03-04 17:10:00,
2013-03-04 11:15:00,45.0,29.8,29.19,SSW,203,2.5,5.4,55,0.00,,,0.01,WUHU216HW,2013-03-04 17:15:00,
2013-03-04 11:20:00,45.5,29.8,29.18,ENE,68,1.8,5.8,54,0.00,,,0.01,WUHU216HW,2013-03-04 17:20:00,
2013-03-04 11:25:00,45.9,30.2,29.18,ENE,68,2.9,6.3,54,0.00,,,0.01,WUHU216HW,2013-03-04 17:25:00,
2013-03-04 11:30:00,46.3,30.4,29.18,NNE,23,3.4,6.3,54,0.00,,,0.01,WUHU216HW,2013-03-04 17:30:00,
2013-03-04 11:35:00,46.6,29.0,29.18,ESE,113,5.6,6.9,50,0.00,,,0.01,WUHU216HW,2013-03-04 17:35:00,
2013-03-04 11:40:00,47.0,30.7,29.17,SE,135,6.9,7.4,53,0.00,,,0.01,WUHU216HW,2013-03-04 17:40:00,
2013-03-04 11:45:00,47.3,30.5,29.17,SSE,158,1.6,7.4,52,0.00,,,0.01,WUHU216HW,2013-03-04 17:45:00,
2013-03-04 11:50:00,47.5,29.8,29.17,East,90,2.7,6.3,50,0.00,,,0.01,WUHU216HW,2013-03-04 17:50:00,
2013-03-04 11:55:00,47.9,30.1,29.17,ESE,113,4.3,6.3,50,0.00,,,0.01,WUHU216HW,2013-03-04 17:55:00,
2013-03-04 12:00:00,48.8,31.4,29.16,ESE,113,5.6,6.5,51,0.00,,,0.01,WUHU216HW,2013-03-04 18:00:00,
2013-03-04 12:05:00,49.3,31.5,29.17,West,270,5.1,6.5,50,0.00,,,0.01,WUHU216HW,2013-03-04 18:05:00,
2013-03-04 12:10:00,49.7,30.8,29.17,NW,315,1.6,5.1,48,0.00,,,0.01,WUHU216HW,2013-03-04 18:10:00,
2013-03-04 12:15:00,50.0,31.7,29.16,ESE,113,6.5,6.5,49,0.00,,,0.01,WUHU216HW,2013-03-04 18:15:00,
2013-03-04 12:20:00,50.2,31.2,29.16,West,270,2.5,6.5,48,0.00,,,0.01,WUHU216HW,2013-03-04 18:20:00,
2013-03-04 12:25:00,50.6,31.1,29.16,ESE,113,3.8,7.4,47,0.00,,,0.01,WUHU216HW,2013-03-04 18:25:00,
2013-03-04 12:29:00,50.6,31.1,29.15,ESE,113,2.7,7.4,47,0.00,,,0.01,WUHU216HW,2013-03-04 18:29:00,
2013-03-04 12:34:00,50.4,30.9,29.15,SSW,203,4.0,4.0,47,0.00,,,0.01,WUHU216HW,2013-03-04 18:34:00,
2013-03-04 12:39:00,50.4,30.9,29.15,NNE,23,4.0,4.0,47,0.00,,,0.01,WUHU216HW,2013-03-04 18:39:00,
2013-03-04 12:44:00,50.4,31.4,29.15,West,270,2.2,4.0,48,0.00,,,0.01,WUHU216HW,2013-03-04 18:44:00,
2013-03-04 12:49:00,50.6,31.6,29.15,East,90,2.5,6.7,48,0.00,,,0.01,WUHU216HW,2013-03-04 18:49:00,
2013-03-04 12:54:00,51.1,32.7,29.14,ESE,113,4.9,6.7,49,0.00,,,0.01,WUHU216HW,2013-03-04 18:54:00,
2013-03-04 12:59:00,51.7,32.6,29.14,SSE,158,2.5,4.9,48,0.00,,,0.01,WUHU216HW,2013-03-04 18:59:00,
2013-03-04 13:04:00,52.0,31.8,29.14,West,270,1.1,3.6,46,0.00,,,0.01,WUHU216HW,2013-03-04 19:04:00,
2013-03-04 13:09:00,52.2,32.0,29.14,NNE,23,1.8,3.6,46,0.00,,,0.01,WUHU216HW,2013-03-04 19:09:00,
2013-03-04 13:14:00,52.2,32.5,29.14,East,90,1.8,4.0,47,0.00,,,0.01,WUHU216HW,2013-03-04 19:14:00,
2013-03-04 13:19:00,52.4,32.7,29.14,SE,135,3.4,4.0,47,0.00,,,0.01,WUHU216HW,2013-03-04 19:19:00,
2013-03-04 13:24:00,52.4,32.7,29.14,ESE,113,2.9,3.8,47,0.00,,,0.01,WUHU216HW,2013-03-04 19:24:00,
2013-03-04 13:29:00,52.4,33.2,29.14,SSE,158,2.0,3.8,48,0.00,,,0.01,WUHU216HW,2013-03-04 19:29:00,
2013-03-04 13:34:00,52.4,33.2,29.14,SSE,158,2.0,2.5,48,0.00,,,0.01,WUHU216HW,2013-03-04 19:34:00,
2013-03-04 13:58:00,53.5,34.7,29.12,SSW,203,3.1,3.1,49,0.00,,,0.01,WUHU216HW,2013-03-04 19:58:00,
2013-03-04 14:03:00,54.0,34.1,29.12,SE,135,2.9,3.4,47,0.00,,,0.01,WUHU216HW,2013-03-04 20:03:00,
2013-03-04 14:08:00,54.0,34.1,29.11,SSE,158,1.1,4.0,47,0.00,,,0.01,WUHU216HW,2013-03-04 20:08:00,
2013-03-04 14:13:00,54.4,35.0,29.11,WSW,248,1.8,4.0,48,0.00,,,0.01,WUHU216HW,2013-03-04 20:13:00,
2013-03-04 14:18:00,54.4,34.5,29.11,East,90,2.5,3.6,47,0.00,,,0.01,WUHU216HW,2013-03-04 20:18:00,
2013-03-04 14:23:00,54.0,34.1,29.11,ESE,113,0.9,3.6,47,0.00,,,0.01,WUHU216HW,2013-03-04 20:23:00,
2013-03-04 14:28:00,54.2,34.3,29.11,ENE,68,4.0,4.3,47,0.00,,,0.01,WUHU216HW,2013-03-04 20:28:00,
2013-03-04 14:33:00,54.4,35.0,29.11,ESE,113,3.6,6.5,48,0.00,,,0.01,WUHU216HW,2013-03-04 20:33:00,
2013-03-04 14:38:00,54.9,35.5,29.11,ENE,68,1.6,6.5,48,0.00,,,0.01,WUHU216HW,2013-03-04 20:38:00,
2013-03-04 14:43:00,55.3,35.3,29.11,NE,45,4.7,4.9,47,0.00,,,0.01,WUHU216HW,2013-03-04 20:43:00,
2013-03-04 14:48:00,55.8,35.7,29.11,SE,135,4.5,7.6,47,0.00,,,0.01,WUHU216HW,2013-03-04 20:48:00,
2013-03-04 14:53:00,56.2,35.6,29.11,ESE,113,2.5,7.6,46,0.00,,,0.01,WUHU216HW,2013-03-04 20:53:00,
2013-03-04 14:58:00,56.3,35.7,29.11,South,180,3.4,3.4,46,0.00,,,0.01,WUHU216HW,2013-03-04 20:58:00,
2013-03-04 15:03:00,57.6,37.4,29.11,SE,135,3.1,3.4,47,0.00,,,0.01,WUHU216HW,2013-03-04 21:03:00,
2013-03-04 15:08:00,58.3,36.4,29.11,ESE,113,1.6,4.0,44,0.00,,,0.01,WUHU216HW,2013-03-04 21:08:00,
2013-03-04 15:13:00,59.4,37.4,29.11,South,180,4.0,6.0,44,0.00,,,0.01,WUHU216HW,2013-03-04 21:13:00,
2013-03-04 15:18:00,59.4,37.4,29.11,SE,135,3.8,6.0,44,0.00,,,0.01,WUHU216HW,2013-03-04 21:18:00,
2013-03-04 15:23:00,59.8,37.7,29.12,ENE,68,1.6,4.3,44,0.00,,,0.01,WUHU216HW,2013-03-04 21:23:00,
2013-03-04 15:28:00,59.8,37.7,29.11,ESE,113,1.6,4.3,44,0.00,,,0.01,WUHU216HW,2013-03-04 21:28:00,
2013-03-04 15:33:00,60.3,38.2,29.11,SE,135,1.3,3.4,44,0.00,,,0.01,WUHU216HW,2013-03-04 21:33:00,
2013-03-04 15:38:00,60.7,36.8,29.11,SSE,158,3.6,3.6,41,0.00,,,0.01,WUHU216HW,2013-03-04 21:38:00,
2013-03-04 15:43:00,60.5,38.3,29.11,ENE,68,2.7,5.1,44,0.00,,,0.01,WUHU216HW,2013-03-04 21:43:00,
2013-03-04 15:48:00,60.5,37.8,29.11,East,90,5.4,5.4,43,0.00,,,0.01,WUHU216HW,2013-03-04 21:48:00,
2013-03-04 15:53:00,59.8,37.7,29.11,East,90,3.4,5.4,44,0.00,,,0.01,WUHU216HW,2013-03-04 21:53:00,
2013-03-04 15:58:00,58.1,36.3,29.11,NNE,23,5.4,6.0,44,0.00,,,0.01,WUHU216HW,2013-03-04 21:58:00,
2013-03-04 16:03:00,57.1,37.0,29.11,NE,45,2.5,6.0,47,0.00,,,0.01,WUHU216HW,2013-03-04 22:03:00,
2013-03-04 16:08:00,56.5,36.5,29.11,NE,45,1.8,5.4,47,0.00,,,0.01,WUHU216HW,2013-03-04 22:08:00,
2013-03-04 16:13:00,56.5,37.0,29.12,ENE,68,6.3,6.3,48,0.00,,,0.01,WUHU216HW,2013-03-04 22:13:00,
2013-03-04 16:18:00,56.3,36.8,29.12,ESE,113,1.6,6.3,48,0.00,,,0.01,WUHU216HW,2013-03-04 22:18:00,
2013-03-04 16:23:00,56.0,37.1,29.12,ESE,113,1.1,5.1,49,0.00,,,0.01,WUHU216HW,2013-03-04 22:23:00,
2013-03-04 16:28:00,55.8,36.9,29.12,SE,135,2.7,4.0,49,0.00,,,0.01,WUHU216HW,2013-03-04 22:28:00,
2013-03-04 16:33:00,55.4,36.6,29.12,East,90,3.1,3.4,49,0.00,,,0.01,WUHU216HW,2013-03-04 22:33:00,
2013-03-04 16:38:00,54.9,36.6,29.12,ESE,113,4.5,4.5,50,0.00,,,0.01,WUHU216HW,2013-03-04 22:38:00,
2013-03-04 16:43:00,54.4,36.1,29.12,North,0,2.0,4.5,50,0.00,,,0.01,WUHU216HW,2013-03-04 22:43:00,
2013-03-04 16:48:00,54.4,36.1,29.12,WSW,248,2.7,4.0,50,0.00,,,0.01,WUHU216HW,2013-03-04 22:48:00,
2013-03-04 16:53:00,54.4,36.1,29.12,SSE,158,1.8,4.9,50,0.00,,,0.01,WUHU216HW,2013-03-04 22:53:00,
2013-03-04 16:58:00,54.0,36.3,29.13,ENE,68,2.7,4.9,51,0.00,,,0.01,WUHU216HW,2013-03-04 22:58:00,
2013-03-04 17:03:00,53.8,36.1,29.13,NNW,338,1.1,4.7,51,0.00,,,0.01,WUHU216HW,2013-03-04 23:03:00,
2013-03-04 17:08:00,53.6,36.4,29.13,East,90,5.1,6.9,52,0.00,,,0.01,WUHU216HW,2013-03-04 23:08:00,
2013-03-04 17:13:00,53.6,36.4,29.12,NE,45,1.8,6.9,52,0.00,,,0.01,WUHU216HW,2013-03-04 23:13:00,
2013-03-04 17:18:00,53.5,36.3,29.12,ESE,113,3.4,4.7,52,0.00,,,0.01,WUHU216HW,2013-03-04 23:18:00,
2013-03-04 17:23:00,53.1,36.4,29.13,NE,45,0.4,3.4,53,0.00,,,0.01,WUHU216HW,2013-03-04 23:23:00,
2013-03-04 17:28:00,52.9,36.2,29.13,ESE,113,2.7,3.4,53,0.00,,,0.01,WUHU216HW,2013-03-04 23:28:00,
2013-03-04 17:33:00,52.7,36.5,29.13,SSE,158,1.1,4.9,54,0.00,,,0.01,WUHU216HW,2013-03-04 23:33:00,
2013-03-04 17:38:00,52.6,36.4,29.13,ESE,113,1.8,4.9,54,0.00,,,0.01,WUHU216HW,2013-03-04 23:38:00,
2013-03-04 17:43:00,52.4,36.6,29.14,ESE,113,2.9,4.7,55,0.00,,,0.01,WUHU216HW,2013-03-04 23:43:00,
2013-03-04 17:48:00,52.2,36.5,29.14,ESE,113,0.7,4.7,55,0.00,,,0.01,WUHU216HW,2013-03-04 23:48:00,
2013-03-04 17:53:00,52.2,36.9,29.14,East,90,2.2,4.3,56,0.00,,,0.01,WUHU216HW,2013-03-04 23:53:00,
2013-03-04 17:58:00,51.8,37.0,29.14,ESE,113,1.1,4.3,57,0.00,,,0.01,WUHU216HW,2013-03-04 23:58:00,
2013-03-04 18:03:00,51.5,36.6,29.14,ESE,113,0.9,2.2,57,0.00,,,0.01,WUHU216HW,2013-03-05 00:03:00,
2013-03-04 18:08:00,51.7,37.3,29.15,SE,135,0.7,2.2,58,0.00,,,0.01,WUHU216HW,2013-03-05 00:08:00,
2013-03-04 18:13:00,51.5,37.1,29.15,SSE,158,0.9,1.3,58,0.00,,,0.01,WUHU216HW,2013-03-05 00:13:00,
2013-03-04 18:18:00,51.5,37.1,29.15,ESE,113,0.0,2.0,58,0.00,,,0.01,WUHU216HW,2013-03-05 00:18:00,
2013-03-04 18:23:00,51.5,37.1,29.15,SE,135,1.8,2.0,58,0.00,,,0.01,WUHU216HW,2013-03-05 00:23:00,
2013-03-04 18:28:00,51.5,37.1,29.15,NW,315,0.9,3.1,58,0.00,,,0.01,WUHU216HW,2013-03-05 00:28:00,
2013-03-04 18:33:00,51.5,37.5,29.15,East,90,1.1,4.3,59,0.00,,,0.01,WUHU216HW,2013-03-05 00:33:00,
2013-03-04 18:38:00,51.5,37.5,29.15,ENE,68,0.4,4.3,59,0.00,,,0.01,WUHU216HW,2013-03-05 00:38:00,
2013-03-04 18:43:00,51.5,37.5,29.15,ESE,113,0.4,1.3,59,0.00,,,0.01,WUHU216HW,2013-03-05 00:43:00,
2013-03-04 18:48:00,51.3,37.9,29.15,ESE,113,0.4,3.6,60,0.00,,,0.01,WUHU216HW,2013-03-05 00:48:00,
2013-03-04 18:53:00,51.5,38.0,29.15,ESE,113,2.7,3.6,60,0.00,,,0.01,WUHU216HW,2013-03-05 00:53:00,
2013-03-04 18:58:00,51.3,38.3,29.16,SSE,158,0.9,2.7,61,0.00,,,0.01,WUHU216HW,2013-03-05 00:58:00,
2013-03-04 19:03:00,51.3,38.3,29.16,SE,135,2.2,2.7,61,0.00,,,0.01,WUHU216HW,2013-03-05 01:03:00,
2013-03-04 19:08:00,51.3,38.7,29.16,ESE,113,1.3,2.5,62,0.00,,,0.01,WUHU216HW,2013-03-05 01:08:00,
2013-03-04 19:13:00,51.1,38.5,29.16,East,90,0.4,2.7,62,0.00,,,0.01,WUHU216HW,2013-03-05 01:13:00,
2013-03-04 19:18:00,51.1,38.5,29.16,ENE,68,3.4,3.4,62,0.00,,,0.01,WUHU216HW,2013-03-05 01:18:00,
2013-03-04 19:23:00,50.9,38.7,29.16,ESE,113,0.0,3.4,63,0.00,,,0.01,WUHU216HW,2013-03-05 01:23:00,
2013-03-04 19:28:00,50.9,38.7,29.15,NE,45,0.9,2.0,63,0.00,,,0.01,WUHU216HW,2013-03-05 01:28:00,
2013-03-04 19:33:00,50.9,38.7,29.16,NE,45,1.3,2.5,63,0.00,,,0.01,WUHU216HW,2013-03-05 01:33:00,
2013-03-04 19:38:00,50.9,39.2,29.16,ESE,113,1.1,2.5,64,0.00,,,0.01,WUHU216HW,2013-03-05 01:38:00,
2013-03-04 19:43:00,50.8,39.0,29.16,ESE,113,2.0,2.2,64,0.00,,,0.01,WUHU216HW,2013-03-05 01:43:00,
2013-03-04 19:48:00,50.8,39.0,29.16,SE,135,0.7,2.0,64,0.00,,,0.01,WUHU216HW,2013-03-05 01:48:00,
2013-03-04 19:53:00,50.8,39.0,29.16,ESE,113,0.9,3.1,64,0.00,,,0.01,WUHU216HW,2013-03-05 01:53:00,
2013-03-04 19:58:00,50.8,39.0,29.16,East,90,1.6,3.1,64,0.00,,,0.01,WUHU216HW,2013-03-05 01:58:00,
2013-03-04 20:03:00,50.6,38.8,29.16,SE,135,1.3,2.2,64,0.00,,,0.01,WUHU216HW,2013-03-05 02:03:00,
2013-03-04 20:08:00,50.6,38.8,29.16,ESE,113,3.4,3.4,64,0.00,,,0.01,WUHU216HW,2013-03-05 02:08:00,
2013-03-04 20:13:00,50.6,39.3,29.16,ESE,113,1.1,3.4,65,0.00,,,0.01,WUHU216HW,2013-03-05 02:13:00,
2013-03-04 20:18:00,50.6,39.3,29.16,East,90,0.4,2.0,65,0.00,,,0.01,WUHU216HW,2013-03-05 02:18:00,
2013-03-04 20:23:00,50.6,39.3,29.16,ENE,68,1.1,2.0,65,0.00,,,0.01,WUHU216HW,2013-03-05 02:23:00,
2013-03-04 20:28:00,50.6,39.3,29.17,ESE,113,1.3,1.3,65,0.00,,,0.01,WUHU216HW,2013-03-05 02:28:00,
2013-03-04 20:33:00,50.6,39.3,29.17,ESE,113,0.2,1.3,65,0.00,,,0.01,WUHU216HW,2013-03-05 02:33:00,
2013-03-04 20:38:00,50.4,38.6,29.17,ESE,113,0.0,1.1,64,0.00,,,0.01,WUHU216HW,2013-03-05 02:38:00,
2013-03-04 20:43:00,50.2,38.4,29.17,East,90,0.4,1.6,64,0.00,,,0.01,WUHU216HW,2013-03-05 02:43:00,
2013-03-04 20:48:00,49.9,37.7,29.17,NE,45,0.7,1.6,63,0.00,,,0.01,WUHU216HW,2013-03-05 02:48:00,
2013-03-04 20:53:00,49.7,37.5,29.17,NE,45,0.4,1.6,63,0.00,,,0.01,WUHU216HW,2013-03-05 02:53:00,
2013-03-04 20:58:00,49.3,37.3,29.17,East,90,1.8,1.8,63,0.00,,,0.01,WUHU216HW,2013-03-05 02:58:00,
2013-03-04 21:03:00,49.3,37.3,29.17,East,90,0.4,1.8,63,0.00,,,0.01,WUHU216HW,2013-03-05 03:03:00,
2013-03-04 21:08:00,49.0,36.9,29.17,East,90,0.4,1.3,63,0.00,,,0.01,WUHU216HW,2013-03-05 03:08:00,
2013-03-04 21:13:00,49.0,36.9,29.17,East,90,0.0,0.7,63,0.00,,,0.01,WUHU216HW,2013-03-05 03:13:00,
2013-03-04 21:18:00,49.0,36.9,29.17,ESE,113,0.0,0.7,63,0.00,,,0.01,WUHU216HW,2013-03-05 03:18:00,
2013-03-04 21:23:00,48.8,36.4,29.17,East,90,1.1,1.1,62,0.00,,,0.01,WUHU216HW,2013-03-05 03:23:00,
2013-03-04 21:28:00,48.6,36.2,29.17,East,90,0.0,1.1,62,0.00,,,0.01,WUHU216HW,2013-03-05 03:28:00,
2013-03-04 21:33:00,48.6,36.2,29.17,East,90,0.4,0.4,62,0.00,,,0.01,WUHU216HW,2013-03-05 03:33:00,
2013-03-04 21:38:00,48.4,36.0,29.17,ESE,113,1.1,1.1,62,0.00,,,0.01,WUHU216HW,2013-03-05 03:38:00,
2013-03-04 21:43:00,48.2,36.3,29.17,East,90,1.1,1.3,63,0.00,,,0.01,WUHU216HW,2013-03-05 03:43:00,
2013-03-04 21:48:00,48.1,36.1,29.17,East,90,0.7,1.3,63,0.00,,,0.01,WUHU216HW,2013-03-05 03:48:00,
2013-03-04 21:53:00,48.1,36.1,29.17,East,90,0.0,1.1,63,0.00,,,0.01,WUHU216HW,2013-03-05 03:53:00,
2013-03-04 21:58:00,47.9,35.9,29.17,ENE,68,0.0,0.4,63,0.00,,,0.01,WUHU216HW,2013-03-05 03:58:00,
2013-03-04 22:03:00,47.9,35.9,29.17,East,90,0.0,0.4,63,0.00,,,0.01,WUHU216HW,2013-03-05 04:03:00,
2013-03-04 22:08:00,47.9,35.9,29.17,ESE,113,0.2,0.7,63,0.00,,,0.01,WUHU216HW,2013-03-05 04:08:00,
2013-03-04 22:13:00,47.9,35.9,29.17,East,90,0.0,0.7,63,0.00,,,0.01,WUHU216HW,2013-03-05 04:13:00,
2013-03-04 22:18:00,47.7,35.7,29.17,SE,135,0.0,1.1,63,0.00,,,0.01,WUHU216HW,2013-03-05 04:18:00,
2013-03-04 22:23:00,47.7,35.7,29.17,ESE,113,0.0,1.1,63,0.00,,,0.01,WUHU216HW,2013-03-05 04:23:00,
2013-03-04 22:28:00,47.7,35.7,29.17,ESE,113,0.0,0.9,63,0.00,,,0.01,WUHU216HW,2013-03-05 04:28:00,
2013-03-04 22:33:00,47.7,35.7,29.17,NE,45,0.0,0.9,63,0.00,,,0.01,WUHU216HW,2013-03-05 04:33:00,
2013-03-04 22:38:00,47.5,35.6,29.17,East,90,0.0,0.4,63,0.00,,,0.01,WUHU216HW,2013-03-05 04:38:00,
2013-03-04 22:43:00,47.5,35.6,29.17,East,90,0.0,0.4,63,0.00,,,0.01,WUHU216HW,2013-03-05 04:43:00,
2013-03-04 22:48:00,47.5,35.6,29.17,East,90,0.0,0.4,63,0.00,,,0.01,WUHU216HW,2013-03-05 04:48:00,
2013-03-04 22:53:00,47.5,35.6,29.17,East,90,0.2,0.4,63,0.00,,,0.01,WUHU216HW,2013-03-05 04:53:00,
2013-03-04 22:58:00,47.5,35.6,29.17,ESE,113,0.2,0.4,63,0.00,,,0.01,WUHU216HW,2013-03-05 04:58:00,
2013-03-04 23:00:00,47.5,35.6,29.17,ESE,113,0.0,0.4,63,0.00,,,0.01,WUHU216HW,2013-03-05 05:00:00,
2013-03-04 23:05:00,47.5,35.6,29.17,ESE,113,0.0,0.4,63,0.00,,,0.01,WUHU216HW,2013-03-05 05:05:00,
2013-03-04 23:10:00,47.5,35.6,29.16,ESE,113,0.0,0.4,63,0.00,,,0.01,WUHU216HW,2013-03-05 05:10:00,
2013-03-04 23:15:00,47.3,35.4,29.16,ESE,113,0.2,1.1,63,0.00,,,0.01,WUHU216HW,2013-03-05 05:15:00,
2013-03-04 23:20:00,47.2,34.8,29.17,ESE,113,0.0,1.1,62,0.00,,,0.01,WUHU216HW,2013-03-05 05:20:00,
2013-03-04 23:25:00,47.0,34.7,29.16,ESE,113,0.0,1.1,62,0.00,,,0.01,WUHU216HW,2013-03-05 05:25:00,
2013-03-04 23:30:00,46.8,34.5,29.16,East,90,0.0,1.1,62,0.00,,,0.01,WUHU216HW,2013-03-05 05:30:00,
2013-03-04 23:35:00,46.8,34.8,29.16,East,90,0.0,0.4,63,0.00,,,0.01,WUHU216HW,2013-03-05 05:35:00,
2013-03-04 23:40:00,46.6,34.7,29.16,East,90,0.0,0.0,63,0.00,,,0.01,WUHU216HW,2013-03-05 05:40:00,
2013-03-04 23:45:00,46.6,34.7,29.15,East,90,0.0,0.0,63,0.00,,,0.01,WUHU216HW,2013-03-05 05:45:00,
2013-03-04 23:50:00,46.4,34.5,29.15,East,90,0.0,0.0,63,0.00,,,0.01,WUHU216HW,2013-03-05 05:50:00,
2013-03-04 23:55:00,46.3,34.3,29.15,ESE,113,0.0,1.1,63,0.00,,,0.01,WUHU216HW,2013-03-05 05:55:00,